Location: Agendoh
(31.0664°N, 8.9343°W)
Time: 19:30:32
(UTC+00:00)

Cosmos 1602 - Pass Details

Date: 06 December 2021
Orbit: 512 x 530 km, 82.5° (Epoch: 16 January)

Event Time Altitude Azimuth Distance (km) Brightness Sun altitude
Rises 06:45:00 0° 189° (S) 2,612 7.5 -7.8°
Reaches altitude 10° 06:47:07 10° 191° (S) 1,728 6.5 -7.3°
Maximum altitude 06:50:54 73° 276° (W) 538 3.6 -6.6°
Drops below altitude 10° 06:54:42 10° 2° (N) 1,738 6.2 -5.8°
Sets 06:56:50 0° 4° (N) 2,628 7.1 -5.4°
